KB5DPX Weather Reports


Display with metric or nautical units.
time (UTC)temp
F
wind
direction
speed
MPH
gust
MPH
rain 1hr
in
rain 24hr
in
rain mn
in
humidity
%
barometer
mb
20260509051231 45 144 0.0 0.0 0.00 0.00 0.00 76 1003.1
20260509050719 44 148 0.0 0.0 0.00 0.00 0.00 78 1003.2
20260509050236 44 134 0.0 0.0 0.00 0.00 0.00 79 1003.3
20260509045717 44 251 0.0 0.0 0.00 0.00 0.00 80 1003.4
20260509045229 44 314 0.0 0.0 0.00 0.00 0.00 81 1003.4
20260509044716 44 315 0.0 0.0 0.00 0.00 0.00 81 1003.4
20260509044233 45 315 0.0 0.0 0.00 0.00 0.00 80 1003.5
20260509043721 45 315 0.0 0.0 0.00 0.00 0.00 78 1003.6
20260509043235 45 315 0.0 0.0 0.00 0.00 0.00 77 1003.7
20260509042732 45 315 0.0 0.0 0.00 0.00 0.00 79 1003.6
20260509042221 45 315 0.0 0.0 0.00 0.00 0.00 77 1003.8
20260509041718 45 315 0.0 0.0 0.00 0.00 0.00 76 1003.9
20260509041230 45 315 0.0 0.0 0.00 0.00 0.00 78 1004.0
20260509040736 45 315 0.0 0.0 0.00 0.00 0.00 79 1004.0
20260509040243 45 315 0.0 0.0 0.00 0.00 0.00 79 1004.1
20260509035732 45 315 0.0 0.0 0.00 0.00 0.00 78 1004.2
20260509035219 45 315 0.0 0.0 0.00 0.00 0.00 79 1004.2
20260509034733 45 315 0.0 0.0 0.00 0.00 0.00 77 1004.2
20260509034221 45 315 0.0 0.0 0.00 0.00 0.00 77 1004.3
20260509033719 45 315 0.0 0.0 0.00 0.00 0.00 80 1004.3
20260509033232 45 315 0.0 0.0 0.00 0.00 0.00 79 1004.3
20260509032732 45 315 0.0 0.0 0.00 0.00 0.00 78 1004.3
20260509032241 45 315 0.0 0.0 0.00 0.00 0.00 78 1004.4
20260509031730 45 315 0.0 0.0 0.00 0.00 0.00 76 1004.5
20260509031219 45 315 0.0 0.0 0.00 0.00 0.00 76 1004.5
20260509030716 45 315 0.0 0.0 0.00 0.00 0.00 77 1004.5
20260509030233 45 315 0.0 0.0 0.00 0.00 0.00 77 1004.6
20260509025733 45 315 0.0 0.0 0.00 0.00 0.00 77 1004.7
20260509025236 45 314 0.0 0.0 0.00 0.00 0.00 76 1004.6
20260509024726 45 314 0.0 0.0 0.00 0.00 0.00 75 1004.7
20260509024235 46 314 0.0 0.0 0.00 0.00 0.00 75 1004.8
20260509023743 46 314 0.0 0.0 0.00 0.00 0.00 73 1004.8
20260509023232 46 314 0.0 0.0 0.00 0.00 0.00 73 1004.9
20260509022733 46 314 0.0 0.0 0.00 0.00 0.00 70 1004.9
20260509022220 45 314 0.0 0.0 0.00 0.00 0.00 71 1004.9
20260509021718 46 314 0.0 0.0 0.00 0.00 0.00 74 1004.9
20260509021233 46 313 0.0 0.0 0.00 0.00 0.00 74 1004.9
20260509020736 46 313 0.0 0.0 0.00 0.00 0.00 73 1005.0
20260509020243 46 313 0.0 0.0 0.00 0.00 0.00 71 1005.1
20260509015743 46 313 0.0 0.0 0.00 0.00 0.00 72 1005.1
20260509015231 46 313 0.0 0.0 0.00 0.00 0.00 72 1005.0
20260509014719 46 313 0.0 0.0 0.00 0.00 0.00 71 1005.0
20260509014233 46 313 0.0 0.0 0.00 0.00 0.00 71 1005.0
20260509013720 46 313 0.0 0.0 0.00 0.00 0.00 72 1005.0
20260509013217 47 313 0.0 0.0 0.00 0.00 0.00 73 1005.0
20260509012740 46 312 0.0 0.0 0.00 0.00 0.00 69 1005.0
20260509012228 47 313 0.0 0.0 0.00 0.00 0.00 72 1005.0
20260509011736 47 313 0.0 0.0 0.00 0.00 0.00 69 1005.0
20260509011243 47 313 0.0 0.0 0.00 0.00 0.00 70 1005.0
20260509010731 47 313 0.0 0.0 0.00 0.00 0.00 67 1004.9
20260509010246 48 313 0.0 0.0 0.00 0.00 0.00 67 1005.0
20260509005723 48 313 0.0 0.0 0.00 0.00 0.00 66 1005.0
20260509005240 49 313 0.0 0.0 0.00 0.00 0.00 64 1005.0
20260509004744 49 313 0.0 0.0 0.00 0.00 0.00 62 1005.0
20260509004231 50 313 0.0 0.0 0.00 0.00 0.00 58 1005.0
20260509003718 50 313 0.0 0.0 0.00 0.00 0.00 51 1005.0
20260509003234 50 313 0.0 0.0 0.00 0.00 0.00 52 1005.2
20260509002732 50 313 0.0 0.0 0.00 0.00 0.00 52 1005.1
20260509002220 50 313 0.0 0.0 0.00 0.00 0.00 51 1005.2
20260509001733 50 313 0.0 0.0 0.00 0.00 0.00 51 1005.2
20260509001222 51 313 0.0 0.0 0.00 0.00 0.00 51 1005.2
20260509000717 51 313 0.0 0.0 0.00 0.00 0.00 51 1005.3
20260509000229 51 312 0.0 0.0 0.00 0.00 0.00 50 1005.3
20260508235728 51 312 0.0 0.0 0.00 0.00 0.00 50 1005.4
20260508235217 51 312 0.0 6.0 0.00 0.00 0.00 50 1005.4
20260508234733 51 312 4.0 6.0 0.00 0.00 0.00 49 1005.5
20260508234221 51 312 4.0 8.0 0.00 0.00 0.00 50 1005.5
20260508233716 51 312 5.0 8.0 0.00 0.00 0.00 50 1005.6
20260508233233 51 312 4.0 6.0 0.00 0.00 0.00 49 1005.6
20260508232731 51 312 3.0 6.0 0.00 0.00 0.00 49 1005.6
20260508232235 52 312 3.0 8.0 0.00 0.00 0.00 50 1005.6
20260508231744 52 312 5.0 8.0 0.00 0.00 0.00 49 1005.7
20260508231234 52 312 5.0 8.0 0.00 0.00 0.00 49 1005.6
20260508230719 52 312 4.0 8.0 0.00 0.00 0.00 51 1005.6
20260508230236 52 311 3.0 9.0 0.00 0.00 0.00 49 1005.5
20260508225737 53 310 5.0 9.0 0.00 0.00 0.00 49 1005.6
20260508225245 53 293 4.0 7.0 0.00 0.00 0.00 48 1005.6
20260508224731 53 292 4.0 10.0 0.00 0.00 0.00 48 1005.6
20260508224236 53 292 7.0 11.0 0.00 0.00 0.00 47 1005.7
20260508223745 53 298 8.0 11.0 0.00 0.00 0.00 49 1005.6
20260508223232 53 309 5.0 10.0 0.00 0.00 0.00 48 1005.7
20260508222731 53 292 8.0 10.0 0.00 0.00 0.00 50 1005.7
20260508222218 52 306 0.0 0.0 0.00 0.00 0.00 50 1005.7
20260508221732 52 305 0.0 0.0 0.00 0.00 0.00 50 1005.8
20260508221221 52 299 0.0 0.0 0.00 0.00 0.00 51 1005.9
20260508220736 52 300 0.0 6.0 0.00 0.00 0.00 53 1006.0
20260508220237 52 301 0.0 9.0 0.00 0.00 0.00 52 1006.1
20260508215719 52 298 4.0 8.0 0.00 0.00 0.00 52 1006.1
20260508215235 52 315 3.0 6.0 0.00 0.00 0.00 53 1006.1
20260508214718 51 315 4.0 8.0 0.00 0.00 0.00 57 1006.1
20260508214234 51 317 5.0 8.0 0.00 0.00 0.00 58 1006.2
20260508213724 50 329 3.0 6.0 0.00 0.00 0.00 59 1006.2
20260508213238 50 342 2.0 9.0 0.00 0.00 0.00 61 1006.2
20260508212736 50 342 6.0 9.0 0.00 0.00 0.00 59 1006.3
20260508212240 50 336 5.0 10.0 0.00 0.00 0.00 58 1006.4
20260508211730 51 335 5.0 11.0 0.00 0.00 0.00 57 1006.4
20260508211239 52 315 5.0 11.0 0.00 0.00 0.00 57 1006.4
20260508210728 52 314 7.0 9.0 0.00 0.00 0.00 56 1006.5
20260508210236 52 301 6.0 11.0 0.00 0.00 0.00 59 1006.4
20260508205717 51 306 7.0 10.0 0.00 0.00 0.00 58 1006.6
20260508205233 51 308 4.0 10.0 0.00 0.00 0.00 59 1006.6
20260508204720 50 315 4.0 11.0 0.00 0.00 0.00 60 1006.6
20260508204231 50 308 6.0 11.0 0.00 0.00 0.00 61 1006.7
20260508203720 50 311 6.0 10.0 0.00 0.00 0.00 63 1006.8
20260508203237 50 318 7.0 10.0 0.00 0.00 0.00 63 1006.9
20260508202732 49 306 6.0 11.0 0.00 0.00 0.00 63 1007.0
20260508202220 49 317 9.0 11.0 0.00 0.00 0.00 66 1007.0
20260508201716 49 300 6.0 11.0 0.00 0.00 0.00 69 1007.0
20260508201233 48 305 7.0 12.0 0.00 0.00 0.00 71 1007.1
20260508200722 48 302 9.0 12.0 0.00 0.00 0.00 71 1007.3
20260508200239 48 293 7.0 13.0 0.00 0.00 0.00 72 1007.3
20260508195733 48 300 8.0 13.0 0.00 0.00 0.00 73 1007.3
20260508195240 48 302 9.0 13.0 0.00 0.00 0.00 74 1007.4
20260508194728 48 308 9.0 14.0 0.00 0.00 0.00 76 1007.5
20260508194236 47 302 9.0 14.0 0.00 0.00 0.00 76 1007.6
20260508193725 47 295 10.0 13.0 0.00 0.00 0.00 76 1007.6
20260508193241 47 300 8.0 14.0 0.00 0.00 0.00 76 1007.7
20260508192721 47 291 7.0 14.0 0.00 0.00 0.00 78 1007.8
20260508192236 47 310 11.0 14.0 0.00 0.00 0.00 77 1007.8
20260508191738 47 309 10.0 16.0 0.00 0.00 0.00 76 1007.9
20260508191244 47 298 11.0 15.0 0.00 0.00 0.00 77 1007.9
20260508190732 46 281 10.0 16.0 0.00 0.00 0.00 78 1007.9
20260508190239 46 287 11.0 17.0 0.00 0.00 0.00 78 1007.9
20260508185718 46 296 12.0 17.0 0.00 0.00 0.00 78 1007.8
20260508185235 46 307 10.0 17.0 0.00 0.00 0.00 78 1007.8
20260508184738 46 310 11.0 17.0 0.00 0.00 0.00 77 1007.9
20260508184238 47 288 11.0 17.0 0.00 0.00 0.00 75 1007.9
20260508183743 47 295 11.0 17.0 0.00 0.00 0.00 75 1007.9
20260508183246 47 285 11.0 16.0 0.00 0.00 0.00 74 1007.9
20260508182738 47 282 11.0 18.0 0.00 0.00 0.00 73 1007.9
20260508182240 47 297 11.0 18.0 0.00 0.00 0.00 73 1007.9
20260508181723 47 286 11.0 20.0 0.00 0.00 0.00 73 1007.9
20260508181236 47 300 12.0 20.0 0.00 0.00 0.00 73 1007.9
20260508180736 47 303 12.0 17.0 0.00 0.00 0.00 74 1008.0
20260508180239 47 308 10.0 15.0 0.00 0.00 0.00 72 1008.1
20260508175733 47 300 8.0 14.0 0.00 0.00 0.00 72 1008.1
20260508175237 47 290 8.0 16.0 0.00 0.00 0.00 73 1008.1
20260508174722 47 314 8.0 14.0 0.00 0.00 0.00 72 1008.1
20260508174236 47 323 8.0 16.0 0.00 0.00 0.00 71 1008.2
20260508173739 47 293 12.0 17.0 0.00 0.00 0.00 71 1008.2
20260508173220 48 293 11.0 17.0 0.00 0.00 0.00 70 1008.2
20260508172739 48 319 8.0 14.0 0.00 0.00 0.00 70 1008.3
20260508172246 48 277 8.0 15.0 0.00 0.00 0.00 68 1008.3
20260508171727 48 313 9.0 16.0 0.00 0.00 0.00 67 1008.3
20260508171242 48 304 11.0 16.0 0.00 0.00 0.00 67 1008.4
20260508170728 48 295 9.0 15.0 0.00 0.00 0.00 66 1008.4
20260508170241 48 316 8.0 16.0 0.00 0.00 0.00 66 1008.5
20260508165740 48 306 10.0 16.0 0.00 0.00 0.00 67 1008.4
20260508165218 48 298 9.0 13.0 0.00 0.00 0.00 67 1008.5
20260508164732 49 300 9.0 15.0 0.00 0.00 0.00 65 1008.6
20260508164217 49 296 11.0 17.0 0.00 0.00 0.00 66 1008.7
20260508163730 49 306 11.0 17.0 0.00 0.00 0.00 65 1008.7
20260508163240 49 324 11.0 17.0 0.00 0.00 0.00 64 1008.7
20260508162730 49 295 10.0 15.0 0.00 0.00 0.00 65 1008.8
20260508162240 49 316 10.0 15.0 0.00 0.00 0.00 65 1008.8
20260508161724 50 293 7.0 15.0 0.00 0.00 0.00 63 1008.8
20260508161232 50 284 9.0 15.0 0.00 0.00 0.00 63 1008.8
20260508160734 49 292 9.0 14.0 0.00 0.00 0.00 64 1008.8
20260508160218 49 304 7.0 12.0 0.00 0.00 0.00 67 1008.9
20260508155723 49 306 7.0 14.0 0.00 0.00 0.00 67 1009.0
20260508155236 49 309 10.0 14.0 0.00 0.00 0.00 68 1009.0
20260508154720 49 307 9.0 12.0 0.00 0.00 0.00 67 1009.0
20260508154236 48 338 8.0 12.0 0.00 0.00 0.00 67 1009.0
20260508153735 48 285 8.0 12.0 0.00 0.00 0.00 67 1009.1
20260508153241 48 309 8.0 12.0 0.00 0.00 0.00 69 1009.2
20260508152719 48 315 8.0 12.0 0.00 0.00 0.00 68 1009.2
20260508152235 48 325 6.0 10.0 0.00 0.00 0.00 68 1009.2
20260508151739 48 324 7.0 10.0 0.00 0.00 0.00 67 1009.3
20260508151225 48 316 8.0 10.0 0.00 0.00 0.00 68 1009.3
20260508150740 48 323 7.0 10.0 0.00 0.00 0.00 68 1009.3
20260508150244 48 315 7.0 10.0 0.00 0.00 0.00 66 1009.3
20260508145737 48 311 6.0 11.0 0.00 0.00 0.00 66 1009.3
20260508145244 49 306 8.0 11.0 0.00 0.00 0.00 64 1009.2
20260508144731 50 286 7.0 13.0 0.00 0.00 0.00 64 1009.3
20260508144235 50 286 8.0 13.0 0.00 0.00 0.00 65 1009.4
20260508143721 49 273 6.0 10.0 0.00 0.00 0.00 67 1009.3
20260508143236 49 291 3.0 14.0 0.00 0.00 0.00 68 1009.3
20260508142736 48 301 0.0 15.0 0.00 0.00 0.00 68 1009.3
20260508142220 48 274 6.0 14.0 0.00 0.00 0.00 66 1009.3
20260508141730 47 247 11.0 14.0 0.00 0.00 0.00 67 1009.5
20260508141217 47 249 7.0 16.0 0.00 0.00 0.00 68 1009.5
20260508140732 47 242 6.0 16.0 0.00 0.00 0.00 67 1009.5
20260508140246 47 240 7.0 12.0 0.00 0.00 0.00 67 1009.6
20260508135721 47 232 8.0 11.0 0.00 0.00 0.00 65 1009.6
20260508135237 47 237 6.0 10.0 0.00 0.00 0.00 69 1009.5
20260508134723 47 221 5.0 12.0 0.00 0.00 0.00 69 1009.6
20260508134236 46 222 8.0 12.0 0.00 0.00 0.00 70 1009.5
20260508133718 46 229 5.0 10.0 0.00 0.00 0.00 72 1009.6
20260508133232 45 218 7.0 11.0 0.00 0.00 0.00 71 1009.6
20260508132729 45 212 0.0 6.0 0.00 0.00 0.00 72 1009.7
20260508132234 44 198 0.0 6.0 0.00 0.00 0.00 76 1009.7
20260508131721 43 227 3.0 6.0 0.00 0.00 0.00 77 1009.7
20260508131236 43 169 0.0 0.0 0.00 0.00 0.00 78 1009.7
20260508130722 42 177 0.0 0.0 0.00 0.00 0.00 77 1009.7
20260508130217 42 126 0.0 0.0 0.00 0.00 0.00 79 1009.8
20260508125739 41 130 0.0 0.0 0.00 0.00 0.00 79 1009.8
20260508125245 41 128 0.0 0.0 0.00 0.00 0.00 79 1009.9
20260508124731 40 128 0.0 0.0 0.00 0.00 0.00 81 1009.9
20260508124239 40 130 0.0 0.0 0.00 0.00 0.00 80 1009.9
20260508123724 40 142 0.0 0.0 0.00 0.00 0.00 82 1009.9
20260508123238 39 138 0.0 0.0 0.00 0.00 0.00 82 1009.9
20260508122737 39 136 0.0 0.0 0.00 0.00 0.00 82 1009.8
20260508122223 39 139 0.0 0.0 0.00 0.00 0.00 83 1009.9
20260508121733 38 140 0.0 0.0 0.00 0.00 0.00 84 1010.0
20260508121238 38 140 0.0 0.0 0.00 0.00 0.00 85 1010.0
20260508120743 37 136 0.0 0.0 0.00 0.00 0.00 86 1010.0
20260508120247 36 139 0.0 0.0 0.00 0.00 0.00 86 1009.9
20260508115722 36 141 0.0 0.0 0.00 0.00 0.00 87 1010.0
20260508115236 35 142 0.0 0.0 0.00 0.00 0.00 87 1010.0
20260508114721 35 143 0.0 0.0 0.00 0.00 0.00 88 1009.9
20260508114231 35 167 0.0 5.0 0.00 0.00 0.00 88 1010.0
20260508113736 34 179 2.0 6.0 0.00 0.00 0.00 89 1009.9
20260508113240 34 205 3.0 6.0 0.00 0.00 0.00 89 1010.0
20260508112734 33 230 5.0 6.0 0.00 0.00 0.00 89 1009.9
20260508112220 33 259 0.0 4.0 0.00 0.00 0.00 89 1009.9
20260508111733 33 259 0.0 4.0 0.00 0.00 0.00 89 1009.9
20260508111238 32 260 2.0 6.0 0.00 0.00 0.00 89 1009.9
20260508110738 32 263 3.0 6.0 0.00 0.00 0.00 88 1010.0
20260508110242 32 264 2.0 3.0 0.00 0.00 0.00 88 1009.9
20260508105739 32 264 0.0 0.0 0.00 0.00 0.00 88 1009.9
20260508105222 32 264 0.0 6.0 0.00 0.00 0.00 87 1009.9
20260508104737 32 264 0.0 6.0 0.00 0.00 0.00 87 1009.9
20260508104222 32 266 2.0 3.0 0.00 0.00 0.00 86 1009.7
20260508103718 32 273 0.0 0.0 0.00 0.00 0.00 85 1009.9
20260508103233 31 273 0.0 0.0 0.00 0.00 0.00 85 1010.0
20260508102729 31 273 0.0 0.0 0.00 0.00 0.00 85 1009.9
20260508102217 31 273 0.0 0.0 0.00 0.00 0.00 84 1009.9
20260508101735 31 273 0.0 0.0 0.00 0.00 0.00 84 1010.0
20260508101240 31 273 0.0 0.0 0.00 0.00 0.00 85 1010.0
20260508100726 31 273 0.0 0.0 0.00 0.00 0.00 85 1009.9
20260508100240 31 273 0.0 0.0 0.00 0.00 0.00 86 1009.9
20260508095719 31 273 0.0 0.0 0.00 0.00 0.00 87 1009.8
20260508095235 31 273 0.0 0.0 0.00 0.00 0.00 88 1009.8
20260508094735 31 273 0.0 0.0 0.00 0.00 0.00 87 1009.8
20260508094241 31 273 0.0 0.0 0.00 0.00 0.00 87 1009.8
20260508093728 31 273 0.0 0.0 0.00 0.00 0.00 87 1009.8
20260508093235 31 273 0.0 0.0 0.00 0.00 0.00 86 1010.0
20260508092734 31 273 0.0 0.0 0.00 0.00 0.00 87 1010.0
20260508092221 32 273 0.0 0.0 0.00 0.00 0.00 87 1010.0
20260508091717 32 273 0.0 0.0 0.00 0.00 0.00 87 1010.0
20260508091231 32 273 0.0 0.0 0.00 0.00 0.00 87 1010.0
20260508090734 32 273 0.0 0.0 0.00 0.00 0.00 86 1010.1
20260508090237 33 273 0.0 0.0 0.00 0.00 0.00 82 1010.2
20260508085735 32 273 0.0 0.0 0.00 0.00 0.00 80 1010.2
20260508085222 32 273 0.0 8.0 0.00 0.00 0.00 81 1010.2
20260508084737 31 273 3.0 8.0 0.00 0.00 0.00 81 1010.3
20260508084242 31 275 0.0 0.0 0.00 0.00 0.00 83 1010.3
20260508083729 31 274 0.0 0.0 0.00 0.00 0.00 84 1010.3
20260508083244 31 274 0.0 0.0 0.00 0.00 0.00 84 1010.2
20260508082738 31 275 0.0 0.0 0.00 0.00 0.00 83 1010.2
20260508082244 31 275 0.0 0.0 0.00 0.00 0.00 82 1010.1
20260508081731 31 275 0.0 0.0 0.00 0.00 0.00 83 1010.1
20260508081237 31 275 0.0 0.0 0.00 0.00 0.00 83 1010.2
20260508080723 31 274 0.0 0.0 0.00 0.00 0.00 82 1010.2
20260508080237 31 274 0.0 0.0 0.00 0.00 0.00 82 1010.3
20260508075736 30 275 0.0 0.0 0.00 0.00 0.00 82 1010.4
20260508075221 30 274 0.0 0.0 0.00 0.00 0.00 83 1010.5
20260508074731 30 275 0.0 0.0 0.00 0.00 0.00 83 1010.5
20260508074218 30 275 0.0 0.0 0.00 0.00 0.00 84 1010.6
20260508073733 30 274 0.0 0.0 0.00 0.00 0.00 84 1010.5
20260508073217 30 274 0.0 0.0 0.00 0.00 0.00 84 1010.5
20260508072724 30 274 0.0 0.0 0.00 0.00 0.00 84 1010.5
20260508072239 30 274 0.0 0.0 0.00 0.00 0.00 84 1010.5
20260508071745 30 274 0.0 0.0 0.00 0.00 0.00 84 1010.6
20260508071226 30 275 0.0 0.0 0.00 0.00 0.00 85 1010.6
20260508070733 31 275 0.0 0.0 0.00 0.00 0.00 85 1010.6
20260508070240 31 274 0.0 0.0 0.00 0.00 0.00 84 1010.7
20260508065738 31 275 0.0 0.0 0.00 0.00 0.00 85 1010.7
20260508065224 31 275 0.0 0.0 0.00 0.00 0.00 84 1010.8
20260508064739 31 275 0.0 0.0 0.00 0.00 0.00 84 1010.9
20260508064225 31 275 0.0 0.0 0.00 0.00 0.00 85 1011.0
20260508063739 31 275 0.0 0.0 0.00 0.00 0.00 85 1011.0
20260508063240 31 275 0.0 0.0 0.00 0.00 0.00 85 1011.0
20260508062739 32 275 0.0 0.0 0.00 0.00 0.00 85 1011.2
20260508062241 32 275 0.0 0.0 0.00 0.00 0.00 85 1011.1
20260508061727 32 275 0.0 0.0 0.00 0.00 0.00 83 1011.4
20260508061241 32 275 0.0 8.0 0.00 0.00 0.00 80 1011.3
20260508060727 31 275 0.0 8.0 0.00 0.00 0.00 81 1011.4
20260508060241 31 265 0.0 0.0 0.00 0.00 0.00 83 1011.3
20260508055740 31 265 0.0 0.0 0.00 0.00 0.00 83 1011.2
20260508055240 31 265 0.0 0.0 0.00 0.00 0.00 84 1011.2
20260508054743 31 265 0.0 0.0 0.00 0.00 0.00 84 1011.2
20260508054228 31 265 0.0 0.0 0.00 0.00 0.00 85 1011.2
20260508053734 32 265 0.0 0.0 0.00 0.00 0.00 85 1011.2
20260508053241 32 265 0.0 0.0 0.00 0.00 0.00 86 1011.2
20260508052719 32 265 0.0 0.0 0.00 0.00 0.00 86 1011.2
20260508052236 32 265 0.0 0.0 0.00 0.00 0.00 86 1011.3
20260508051739 32 265 0.0 0.0 0.00 0.00 0.00 87 1011.4